Find Local Weather

World > North America > United States > New York

North Hudson, New York Regional Weather

Lat: 43.95N, Lon: 73.73W
Wx Zone: NYZ034
Warning FLW WEATHER ALERT - (More Info. Click Here) Warning
Feedback

North Hudson, NY Regional Weather

Expires:201905212100;;238413
ASUS41 KALY 212010
RWRALY

NEW YORK STATE HOURLY WEATHER ROUNDUP
NATIONAL WEATHER SERVICE ALBANY NY
400 PM EDT TUE MAY 21 2019

NOTE: "FAIR" INDICATES FEW OR NO CLOUDS BELOW 12,000 FEET WITH NO
SIGNIFICANT WEATHER AND/OR NO OBSTRUCTIONS TO VISIBILITY.


NYZ026>034-041>043-087-212100-
NORTH

  
CITY           SKY/WX    TMP DP  RH WIND       PRES   REMARKS
WATERTOWN      PTSUNNY   63  41  44 W12G17    30.04R                  
FORT DRUM      NOT AVBL                                               
OGDENSBURG     PTSUNNY   64  36  34 NW16G25   29.99R                  
MASSENA        FAIR      63  36  36 NW14G29   30.00R                  
SARANAC LAKE   PTSUNNY   55  32  41 NW9G29    29.95R                  
PLATTSBURGH    PTSUNNY   62  34  35 MISG      29.90R                  
$$


SKY/WX - Weather  TMP - Temperature  DP - Dew Point  RH - Relative Humidity
WIND - Wind Direction/Speed PRES - Barometric Pressure VSB - Visibility
WCI - Wind Chill Index E13G22 Wind - East Wind 13 mph/Gusts of 22 mph